DO6GZ Weather Reports


time (UTC)temp
C
wind
direction
speed
KPH
gust
KPH
rain 1hr
cm
rain 24hr
cm
rain mn
cm
humidity
%
barometer
mb
20260506184906 9 135 3.2 0.0 0.00 0.00 0.00 10 1009.3
20260506183839 9 180 3.2 0.0 0.00 0.00 0.00 10 1009.1
20260506182812 9 90 0.0 0.0 0.00 0.00 0.00 10 1009.0
20260506181744 9 315 3.2 0.0 0.00 0.00 0.00 10 1009.0
20260506180716 9 225 1.6 0.0 0.00 0.00 0.00 10 1008.9
20260506175649 10 135 4.8 0.0 0.03 0.00 0.00 10 1008.9
20260506174621 10 135 4.8 0.0 0.03 0.00 0.00 10 1008.8
20260506173554 10 135 4.8 0.0 0.03 0.00 0.00 10 1008.8
20260506172526 10 225 0.0 0.0 0.00 0.00 0.00 10 1008.7
20260506171459 10 315 0.0 0.0 0.00 0.00 0.00 10 1008.7
20260506170431 10 45 6.4 0.0 0.00 0.00 0.00 10 1008.6
20260506165404 10 135 3.2 0.0 0.00 0.00 0.00 10 1008.6
20260506164336 10 315 1.6 0.0 0.00 0.00 0.00 10 1008.4
20260506163309 10 135 1.6 0.0 0.00 0.00 0.00 10 1008.4
20260506162241 10 180 8.0 0.0 0.00 0.00 0.00 10 1008.4
20260506161214 10 135 0.0 0.0 0.00 0.00 0.00 10 1008.4
20260506160146 10 270 1.6 0.0 0.00 0.00 0.00 10 1008.3
20260506155118 10 135 3.2 0.0 0.00 0.00 0.00 10 1008.4
20260506154051 10 0.0 0.0 0.00 0.00 0.00 10 1008.4
20260506153023 10 90 9.7 0.0 0.00 0.00 0.00 10 1008.3
20260506150928 11 90 3.2 0.0 0.00 0.00 0.00 10 1008.3
20260506145901 11 135 8.0 0.0 0.00 0.00 0.00 10 1008.2
20260506144833 11 135 1.6 0.0 0.00 0.00 0.00 10 1008.3
20260506142738 11 315 3.2 0.0 0.00 0.00 0.00 10 1008.2
20260506141711 11 315 0.0 0.0 0.00 0.00 0.00 10 1008.1
20260506140643 11 315 1.6 0.0 0.00 0.00 0.00 10 1008.2
20260506135616 11 9.7 0.0 0.00 0.00 0.00 10 1008.2
20260506134548 11 135 4.8 0.0 0.00 0.00 0.00 10 1008.3
20260506133521 11 135 0.0 0.0 0.00 0.00 0.00 10 1008.2
20260506132453 11 45 8.0 0.0 0.00 0.00 0.00 10 1008.2
20260506131425 11 90 0.0 0.0 0.00 0.00 0.00 10 1008.2
20260506130358 10 315 6.4 0.0 0.00 0.00 0.00 10 1008.2
20260506123235 11 90 0.0 0.0 0.00 0.00 0.00 10 1008.1
20260506122208 10 270 0.0 0.0 0.00 0.00 0.00 10 1008.0
20260506121140 11 315 0.0 0.0 0.00 0.00 0.00 10 1007.9
20260506115045 11 270 3.2 0.0 0.00 0.00 0.00 10 1007.9
20260506114018 10 90 6.4 0.0 0.00 0.00 0.00 10 1007.9
20260506112950 10 135 4.8 0.0 0.00 0.00 0.00 10 1007.9
20260506111923 10 135 8.0 0.0 0.00 0.00 0.00 10 1007.9
20260506110855 11 135 0.0 0.0 0.00 0.00 0.00 10 1007.9
20260506105827 10 315 12.9 0.0 0.00 0.00 0.00 10 1007.9
20260506104800 10 135 0.0 0.0 0.00 0.00 0.00 10 1008.0
20260506103732 10 1.6 0.0 0.03 0.00 0.00 10 1007.9
20260506102705 10 90 0.0 0.0 0.03 0.00 0.00 10 1007.9
20260506101637 10 315 1.6 0.0 0.00 0.00 0.00 10 1007.7
20260506100610 10 270 0.0 0.0 0.00 0.00 0.00 10 1007.7
20260506095542 10 315 0.0 0.0 0.00 0.00 0.00 10 1007.7
20260506094515 10 315 0.0 0.0 0.00 0.00 0.00 10 1007.7
20260506092420 10 45 0.0 0.0 0.10 0.00 0.00 10 1007.5
20260506091352 10 270 6.4 0.0 0.08 0.00 0.00 10 1007.5
20260506090325 10 135 0.0 0.0 0.05 0.00 0.00 10 1007.5
20260506085257 10 0 1.6 0.0 0.03 0.00 0.00 10 1007.4
20260506084229 10 135 11.3 0.0 0.00 0.00 0.00 10 1007.4
20260506082134 10 315 0.0 0.0 0.00 0.00 0.00 10 1007.2
20260506081107 10 270 3.2 0.0 0.00 0.00 0.00 10 1007.2
20260506071849 10 180 1.6 0.0 0.05 0.00 0.00 10 1007.0
20260506070822 10 0 0.0 0.0 0.03 0.00 0.00 10 1007.1
20260506061604 10 180 0.0 0.0 0.05 0.00 0.00 10 1006.8
20260506060537 10 225 0.0 0.0 0.03 0.00 0.00 10 1006.7
20260506051319 10 0 0.0 0.0 0.08 0.00 0.00 10 1006.7
20260506044156 10 135 0.0 0.0 0.03 0.00 0.00 10 1006.7
20260506043129 10 315 0.0 0.0 0.00 0.00 0.00 10 1006.8
20260506042101 10 315 0.0 0.0 0.13 0.00 0.00 10 1006.8
20260506041034 10 90 11.3 0.0 0.13 0.00 0.00 10 1006.8
20260506040006 10 135 4.8 0.0 0.10 0.00 0.00 10 1007.0
20260506034939 10 135 4.8 0.0 0.08 0.00 0.00 10 1007.0
20260506033911 10 135 0.0 0.0 0.05 0.00 0.00 10 1007.1
20260506032844 10 315 0.0 0.0 0.03 0.00 0.00 10 1007.1
20260506031816 10 45 0.0 0.0 0.25 0.00 0.00 10 1007.2
20260506030749 10 135 0.0 0.0 0.20 0.00 0.00 10 1007.3
20260506024654 11 180 0.0 0.0 0.13 0.00 0.00 10 1007.5
20260506023627 10 315 0.0 0.0 0.10 0.00 0.00 10 1007.5
20260506022559 11 0 0.0 0.0 0.05 0.00 0.00 10 1007.6
20260506021532 11 0 0.0 0.0 0.10 0.00 0.00 10 1007.7
20260506014410 11 135 1.6 0.0 0.03 0.00 0.00 10 1007.8
20260506013343 11 135 0.0 0.0 0.03 0.00 0.00 10 1007.8
20260506012315 11 315 0.0 0.0 0.00 0.00 0.00 10 1007.8
20260506010220 11 315 11.3 0.0 0.13 0.00 0.00 10 1008.0
20260506005153 11 315 0.0 0.0 0.10 0.00 0.00 10 1008.0
20260506003058 11 315 0.0 0.0 0.05 0.00 0.00 10 1008.2
20260506001004 11 315 1.6 0.0 0.18 0.00 0.00 10 1008.3
20260505235936 11 90 8.0 0.0 0.13 0.00 0.00 10 1008.5
20260505234909 11 135 0.0 0.0 0.10 0.00 0.00 10 1008.6
20260505233842 11 315 0.0 0.0 0.08 0.00 0.00 10 1008.6
20260505231747 11 135 0.0 0.0 0.03 0.00 0.00 10 1008.7
20260505230719 11 315 0.0 0.0 0.13 0.00 0.00 10 1008.7
20260505225652 11 315 3.2 0.0 0.10 0.00 0.00 10 1008.8
20260505224625 11 135 1.6 0.0 0.08 0.00 0.00 10 1008.9
20260505223557 11 0.0 0.0 0.05 0.00 0.00 10 1008.8
20260505222530 11 225 0.0 0.0 0.03 0.00 0.00 10 1008.9
20260505221503 11 315 0.0 0.0 0.03 0.00 0.00 10 1008.9
20260505213313 11 0.0 0.0 0.03 0.00 0.00 10 1009.2
20260505212246 11 315 6.4 0.0 0.03 0.00 0.00 10 1009.3
20260505210151 11 225 0.0 0.0 0.05 0.00 0.00 10 1009.4
20260505205124 12 225 0.0 0.0 0.05 0.00 0.00 10 1009.4
20260505204056 12 315 0.0 0.0 0.03 0.00 0.00 10 1009.4
20260505202001 12 0 3.2 0.0 0.00 0.00 0.00 10 1009.3